Weather History for KPDT - March, 2013

Change the Weather History Date:

Sunday, March 3, 2013

  Actual Average Record
Temperature  
Mean Temperature 39 °F 42 °F  
Max Temperature 49 °F 51 °F 67 °F (1994)
Min Temperature 29 °F 32 °F 7 °F (1896)
Degree Days  
Heating Degree Days 26 23  
Month to date heating degree days 55 70  
Since 1 July heating degree days 3788 3969  
Cooling Degree Days 0 0  
Month to date cooling degree days 0 0  
Year to date cooling degree days 0 0  
Moisture  
Dew Point 24 °F    
Average Humidity 53    
Maximum Humidity 76    
Minimum Humidity 29    
Precipitation  
Precipitation T in 0.05 in 0.57 in (1977)
Month to date precipitation T 0.14  
Year to date precipitation 1.37 2.68  
Snow  
Snow 0.00 in 0.10 in 2.40 in (1960)
Month to date snowfall 0.0 0.2  
Year to date snowfall 0.1 7.2  
Since 1 July snowfall 1.9 14.7  
Snow Depth 0.00 in    
Sea Level Pressure  
Sea Level Pressure 30.14 in    
Wind  
Wind Speed 15 mph (West)    
Max Wind Speed 31 mph    
Max Gust Speed 38 mph    
Visibility 10 miles    
Events Rain    
T = Trace of Precipitation, MM = Missing Value Source: NWS Daily Summary

Daily Weather History Graph

Daily Weather History Graph

Search for Another Location

Airport or City:

Trip Planner

Search our weather history database for the weather conditions in past years. The results will help you decide how hot, cold, wet, or windy it might be!

Date:

Astronomy

Mar. 03, 2013 Rise Set
Actual Time 6:29 AM PST 5:45 PM PST
Civil Twilight 5:59 AM PST 6:15 PM PST
Nautical Twilight 5:25 AM PST 6:49 PM PST
Astronomical Twilight 4:51 AM PST 7:24 PM PST
Moon No Moon Rise 9:28 AM PST (3/3)
Length of Visible Light 12h 15m
Length of Day
11h 15m
Waning Gibbous, 62% of the Moon is Illuminated
Mar 3
Waning Gibbous
Mar 4
Last Quarter
Mar 11
New
Mar 19
First Quarter
Mar 27
Full

Hourly Weather History & Observations

Time (PST) Temp. Windchill Dew Point Humidity Pressure Visibility Wind Dir Wind Speed Gust Speed Precip Events Conditions
12:53 AM 44.1 °F 35.2 °F 37.0 °F 76% 30.03 in 10.0 mi West 23.0 mph - N/A   Mostly Cloudy
1:53 AM 42.1 °F 32.6 °F 33.1 °F 70% 30.06 in 10.0 mi West 23.0 mph 33.4 mph N/A   Overcast
2:53 AM 41.0 °F 32.5 °F 30.9 °F 67% 30.11 in 10.0 mi West 17.3 mph - N/A   Overcast
3:53 AM 37.9 °F 27.1 °F 28.9 °F 70% 30.12 in 10.0 mi West 23.0 mph - N/A   Scattered Clouds
4:53 AM 36.0 °F 25.3 °F 27.0 °F 70% 30.14 in 10.0 mi West 19.6 mph - N/A   Clear
5:53 AM 35.1 °F 24.1 °F 25.0 °F 67% 30.14 in 10.0 mi WSW 19.6 mph - N/A   Clear
6:53 AM 34.0 °F 23.0 °F 24.1 °F 67% 30.16 in 10.0 mi West 18.4 mph - N/A   Clear
7:53 AM 36.0 °F 23.7 °F 24.1 °F 62% 30.14 in 10.0 mi WSW 26.5 mph - N/A   Clear
8:53 AM 39.0 °F 28.0 °F 24.1 °F 55% 30.16 in 10.0 mi West 25.3 mph - N/A   Clear
9:53 AM 42.1 °F 32.6 °F 24.1 °F 49% 30.16 in 10.0 mi West 23.0 mph - N/A   Clear
10:53 AM 44.1 °F 35.7 °F 24.1 °F 45% 30.15 in 10.0 mi West 20.7 mph 29.9 mph N/A   Clear
11:53 AM 46.0 °F 38.8 °F 23.0 °F 40% 30.14 in 10.0 mi West 18.4 mph 27.6 mph N/A   Clear
12:53 PM 46.9 °F - 18.0 °F 32% 30.12 in 10.0 mi West 11.5 mph 23.0 mph N/A   Clear
1:53 PM 46.9 °F - 18.0 °F 32% 30.11 in 10.0 mi West 11.5 mph - N/A   Scattered Clouds
2:53 PM 48.9 °F - 17.1 °F 28% 30.11 in 10.0 mi West 17.3 mph - N/A   Scattered Clouds
3:53 PM 48.9 °F - 18.0 °F 29% 30.12 in 10.0 mi WNW 11.5 mph - N/A   Overcast
4:53 PM 46.9 °F - 19.0 °F 33% 30.12 in 10.0 mi West 15.0 mph - N/A   Overcast
5:53 PM 44.1 °F 37.4 °F 24.1 °F 45% 30.13 in 10.0 mi West 13.8 mph - 0.00 in Rain Light Rain
6:53 PM 41.0 °F 35.2 °F 25.0 °F 53% 30.15 in 10.0 mi WNW 9.2 mph - 0.00 in   Mostly Cloudy
7:53 PM 37.0 °F 30.4 °F 23.0 °F 57% 30.17 in 10.0 mi North 9.2 mph - N/A   Mostly Cloudy
8:53 PM 34.0 °F 26.0 °F 23.0 °F 64% 30.19 in 10.0 mi WNW 10.4 mph - N/A   Mostly Cloudy
9:53 PM 35.1 °F - 21.0 °F 57% 30.19 in 10.0 mi Calm Calm - N/A   Overcast
10:53 PM 28.9 °F - 19.9 °F 69% 30.22 in 10.0 mi Calm Calm - N/A   Scattered Clouds
11:53 PM 34.0 °F 31.0 °F 19.0 °F 54% 30.22 in 10.0 mi SSE 3.5 mph - N/A   Clear